Location: Banksville Park
(38.5557°N, 75.1182°W)
Time: 13:06:28
(UTC+00:00)

Cosmos 1697 Rocket - Pass Details

Date: 19 September 2020
Orbit: 832 x 844 km, 71.0° (Epoch: 26 October)

Event Time Altitude Azimuth Distance (km) Brightness Sun altitude
Exits shadow 07:38:02 37° 32° (NNE) 1,270 3.9 -35.2°
Drops below altitude 10° 07:41:22 10° 26° (NNE) 2,447 5.7 -34.7°
Sets 07:43:48 0° 25° (NNE) 3,385 6.6 -34.3°
